EUTELSAT 117 WEST A

Last updated on Wed Mar 11 2026 00:02:53 GMT+0000 (Coordinated Universal Time)

1 39122U 13012A 26069.30341949 -.00000011 00000+0 00000+0 0 9991 2 39122 0.0422 300.9104 0002895 57.1546 162.3185 1.00272240 47449
UTC large
Height (km)
Speed (km/s)
/
Latitude / Longitude
Inclination (degrees)
Orbital Period (minutes)
Azimuth
Elevation
Range (km)
Doppler Factor

Next 0 passes for location: London (51.5072 / 0.1276)

Sorry there are no passes over London.